sat.trackr.live / text

‹ back to catalog

STARLINK-4095

NORAD 53170 · 2022-083AQ

PAYLOAD ACTIVE UNKNOWN

§ Identity

Operator
Country
US
Launch date
2022-07-17
Launch site
AFETR
Launch vehicle
Mass (kg)
RCS (m²)

Purposes: comms

External: N2YO · Heavens-Above · Gunter

§ Orbital elements

Epoch: 2026-05-24T19:52:36.878304Z

Period
95.44 min
Inclination
53.2134°
Eccentricity
0.0001024
Mean motion
15.08850781 rev/d
Perigee alt
539.0 km
Apogee alt
540.4 km
Semi-major
6,917.8 km
B*
5.7426e-5
RAAN
177.2736°
Arg perigee
81.0720°
Mean anomaly
279.0388°
Rev number
21,292

§ Raw data

STARLINK-40951 53170U 22083AQ  26144.82820461  .00000627  00000+0  57426-4 0  99912 53170  53.2134 177.2736 0001024  81.0720 279.0388 15.08850781212920

JSON: /api/v1/satellites/53170 · /tle

For live sub-satellite position, see the globe view (requires WebGL).

§ Visibility from observer

Set your observer location to see the next 7 days of passes ≥ 10°. The values pass through the URL so the page stays shareable.

No JS? Fill the form by hand. The geolocation button needs JavaScript.